Regional Weather Roundup
Issued by NWS

Home | Current Version | Previous Version | Graphics & Text | Print | Product List | Glossary On
Versions: 1 2 3 4 5 6 7 8 9 10 11 12 13 14 15 16 17 18 19 20 21 22 23 24 25 26 27 28 29 30 31 32 33 34 35 36 37 38 39 40 41 42 43 44 45 46 47 48 49 50
000
ASUS45 KCYS 242310
RWRWY

WYOMING REGIONAL WEATHER ROUNDUP
NATIONAL WEATHER SERVICE CHEYENNE WY
500 PM MDT SAT JUN 24 2017

NOTE:  "FAIR" INDICATES FEW OR NO CLOUDS BELOW 12,000 FEET
WITH NO SIGNIFICANT WEATHER AND/OR OBSTRUCTIONS TO VISIBILITY.

WYZ001-250000-
YELLOWSTONE NATIONAL PARK

CITY           SKY/WX    TMP DP  RH WIND       PRES   REMARKS
LK YELLOWSTONE   N/A     60  33  36 CALM      30.42S
W YELLOWSTONE  NOT AVBL

$$
WYZ002>013-054>058-071-098>099-250000-
NORTHERN WYOMING

CITY           SKY/WX    TMP DP  RH WIND       PRES   REMARKS
JACKSON        SUNNY     73  37  27 NW12      30.31F
CODY           FAIR      72  35  25 N9        30.31S
GREYBULL       FAIR      78  28  16 NW8       30.22F
WORLAND        FAIR      75  30  19 CALM      30.25F
SHERIDAN       PTSUNNY   73  36  25 NW6       30.30F
BUFFALO        FAIR      68  36  30 N7        30.34F
GILLETTE       FAIR      73  27  18 NW14G23   30.29F
NEWCASTLE      FAIR      70  23  17 N8G23     30.30S

$$
WYZ014>020-022>026-101>103-250000-
CENTRAL WYOMING

CITY           SKY/WX    TMP DP  RH WIND       PRES   REMARKS
BIG PINEY      FAIR      74  34  23 W8        30.33F
PINEDALE       CLOUDY    70  32  24 CALM      30.35S
DUBOIS         FAIR      63  32  31 SE12G20   30.35S
LANDER         FAIR      73  34  23 MISG      30.27F
RIVERTON       FAIR      73  30  20 E8        30.29F
CASPER         PTSUNNY   74  29  19 E5        30.30F
DOUGLAS        CLOUDY    73  33  23 N13       30.31F

$$
WYZ021-027>030-104>119-250000-
SOUTHERN WYOMING

CITY           SKY/WX    TMP DP  RH WIND       PRES   REMARKS
EVANSTON       FAIR      77  32  19 SW9       30.33F
KEMMERER         N/A     73  28  19 W8        30.35F
FORT BRIDGER   FAIR      78  23  13 NW6       30.36S
ROCK SPRINGS   FAIR      76  24  14 W7        30.32F
DIXON          FAIR      77  25  14 NW7       30.32F
RAWLINS        FAIR      73  24  16 N10       30.35F
SARATOGA       FAIR      72  23  16 NW10      30.36S
LARAMIE        PTSUNNY   67  36  31 E13       30.36S
CHEYENNE       CLOUDY    67  38  34 E15       30.33F
TORRINGTON     FAIR      74  29  19 NW5       30.25F
PINE BLUFFS    FAIR      70  36  28 SE5       30.31S

$$



USA.gov is the U.S. government's official web portal to all federal, state and local government web resources and services.